Location: Chandrammap?lem
(16.9200°N, 81.0051°E)
Time: 13:34:54
(UTC+00:00)

NOSS 3-2 (A) - Pass Details

Date: 29 May 2024
Orbit: 704 x 1502 km, 63.4° (Epoch: 12 April)

Event Time Altitude Azimuth Distance (km) Brightness Sun altitude
Exits shadow 22:25:54 48° 218° (SW) 917 3.0 -21.2°
Maximum altitude 22:27:13 79° 295° (WNW) 730 2.7 -20.9°
Drops below altitude 10° 22:32:21 10° 22° (NNE) 2,300 6.2 -19.9°
Sets 22:34:53 0° 24° (NNE) 3,309 7.2 -19.4°
